TimeMST,TemperatureF,Dew PointF,Humidity,Sea Level PressureIn,VisibilityMPH,Wind Direction,Wind SpeedMPH,Gust SpeedMPH,PrecipitationIn,Events,Conditions,WindDirDegrees,DateUTC
12:15 AM,-0.4,-11.2,60,29.85,10.0,Calm,Calm,-,N/A,,Clear,0,2011-11-20 07:15:00
12:35 AM,1.4,-9.4,61,29.85,10.0,SSE,5.8,-,N/A,,Clear,150,2011-11-20 07:35:00
12:55 AM,8.6,-2.2,62,29.85,10.0,ESE,4.6,-,N/A,,Clear,120,2011-11-20 07:55:00
1:15 AM,10.4,1.4,67,29.85,10.0,Calm,Calm,-,N/A,,Clear,0,2011-11-20 08:15:00
3:55 AM,6.8,-2.2,67,29.87,10.0,Calm,Calm,-,N/A,,Clear,0,2011-11-20 10:55:00
4:15 AM,1.4,-11.2,56,29.88,10.0,North,4.6,-,N/A,,Clear,350,2011-11-20 11:15:00
4:55 AM,6.8,-5.8,56,29.88,10.0,Calm,Calm,-,N/A,,Clear,0,2011-11-20 11:55:00
6:15 AM,10.4,-4.0,52,29.90,10.0,South,6.9,-,N/A,,Clear,180,2011-11-20 13:15:00
6:35 AM,10.4,-5.8,48,29.90,10.0,South,3.5,-,N/A,,Clear,180,2011-11-20 13:35:00
6:55 AM,8.6,-7.6,48,29.90,10.0,Calm,Calm,-,N/A,,Clear,0,2011-11-20 13:55:00
7:15 AM,10.4,-2.2,57,29.91,10.0,SSE,11.5,-,N/A,,Clear,150,2011-11-20 14:15:00
7:35 AM,15.8,-0.4,49,29.91,10.0,South,6.9,-,N/A,,Clear,170,2011-11-20 14:35:00
7:55 AM,10.4,-5.8,48,29.91,10.0,SSE,5.8,-,N/A,,Clear,160,2011-11-20 14:55:00
8:15 AM,15.8,1.4,53,29.91,10.0,SSE,12.7,-,N/A,,Clear,160,2011-11-20 15:15:00
8:35 AM,19.4,1.4,46,29.90,10.0,SSE,11.5,-,N/A,,Clear,160,2011-11-20 15:35:00
8:55 AM,17.6,-0.4,45,29.91,10.0,South,15.0,-,N/A,,Clear,180,2011-11-20 15:55:00
9:15 AM,19.4,1.4,46,29.90,10.0,South,18.4,-,N/A,,Clear,170,2011-11-20 16:15:00
9:35 AM,21.2,3.2,46,29.90,10.0,South,16.1,-,N/A,,Clear,180,2011-11-20 16:35:00
9:55 AM,21.2,3.2,46,29.90,10.0,South,13.8,-,N/A,,Clear,180,2011-11-20 16:55:00
10:15 AM,21.2,6.8,54,29.90,10.0,South,11.5,-,N/A,,Clear,170,2011-11-20 17:15:00
10:35 AM,23.0,6.8,50,29.90,9.0,SW,4.6,-,N/A,,Clear,220,2011-11-20 17:35:00
11:15 AM,23.0,6.8,50,29.89,10.0,ENE,3.5,-,N/A,,Clear,70,2011-11-20 18:15:00
11:55 AM,12.2,-0.4,57,29.87,10.0,NNE,6.9,-,N/A,,Clear,30,2011-11-20 18:55:00
12:15 PM,12.2,-0.4,57,29.87,10.0,North,4.6,-,N/A,,Clear,350,2011-11-20 19:15:00
12:35 PM,14.0,-0.4,53,29.87,10.0,NNW,4.6,-,N/A,,Clear,340,2011-11-20 19:35:00
12:55 PM,14.0,1.4,57,29.86,10.0,North,3.5,-,N/A,,Clear,360,2011-11-20 19:55:00
1:15 PM,17.6,3.2,53,29.86,10.0,Calm,Calm,-,N/A,,Clear,0,2011-11-20 20:15:00
1:35 PM,17.6,3.2,53,29.86,10.0,Calm,Calm,-,N/A,,Clear,0,2011-11-20 20:35:00
1:55 PM,21.2,6.8,54,29.86,10.0,Calm,Calm,-,N/A,,Clear,0,2011-11-20 20:55:00
2:15 PM,21.2,6.8,54,29.86,10.0,Calm,Calm,-,N/A,,Clear,0,2011-11-20 21:15:00
2:35 PM,21.2,6.8,54,29.86,10.0,Calm,Calm,-,N/A,,Clear,0,2011-11-20 21:35:00
2:55 PM,21.2,6.8,54,29.86,10.0,Calm,Calm,-,N/A,,Clear,0,2011-11-20 21:55:00
3:15 PM,21.2,6.8,54,29.86,10.0,Calm,Calm,-,N/A,,Clear,0,2011-11-20 22:15:00
3:55 PM,19.4,6.8,58,29.86,10.0,ESE,4.6,-,N/A,,Clear,120,2011-11-20 22:55:00
4:35 PM,19.4,6.8,58,29.87,10.0,SSW,4.6,-,N/A,,Partly Cloudy,210,2011-11-20 23:35:00
5:15 PM,17.6,5.0,58,29.86,10.0,South,4.6,-,N/A,,Partly Cloudy,190,2011-11-21 00:15:00
5:35 PM,17.6,5.0,58,29.86,10.0,South,3.5,-,N/A,,Partly Cloudy,180,2011-11-21 00:35:00
5:55 PM,15.8,3.2,58,29.86,10.0,Calm,Calm,-,N/A,,Clear,0,2011-11-21 00:55:00
6:35 PM,14.0,1.4,57,29.87,10.0,East,3.5,-,N/A,,Clear,100,2011-11-21 01:35:00
6:55 PM,14.0,3.2,62,29.87,10.0,Calm,Calm,-,N/A,,Clear,0,2011-11-21 01:55:00
7:15 PM,12.2,1.4,62,29.87,10.0,NNE,4.6,-,N/A,,Clear,30,2011-11-21 02:15:00
7:35 PM,12.2,-0.4,57,29.87,10.0,NW,4.6,-,N/A,,Clear,310,2011-11-21 02:35:00
7:55 PM,12.2,3.2,67,29.87,10.0,Calm,Calm,-,N/A,,Clear,0,2011-11-21 02:55:00
8:15 PM,14.0,3.2,62,29.88,10.0,South,3.5,-,N/A,,Clear,180,2011-11-21 03:15:00
8:35 PM,15.8,5.0,62,29.88,10.0,Calm,Calm,-,N/A,,Clear,0,2011-11-21 03:35:00
8:55 PM,19.4,6.8,58,29.87,10.0,Calm,Calm,-,N/A,,Clear,0,2011-11-21 03:55:00
9:15 PM,12.2,-0.4,57,29.88,10.0,SE,3.5,-,N/A,,Clear,140,2011-11-21 04:15:00
9:35 PM,12.2,-0.4,57,29.89,10.0,South,6.9,-,N/A,,Clear,170,2011-11-21 04:35:00
9:55 PM,10.4,-0.4,62,29.89,10.0,South,4.6,-,N/A,,Clear,180,2011-11-21 04:55:00
10:15 PM,15.8,3.2,58,29.90,10.0,Calm,Calm,-,N/A,,Clear,0,2011-11-21 05:15:00
10:35 PM,15.8,1.4,53,29.90,10.0,Calm,Calm,-,N/A,,Clear,0,2011-11-21 05:35:00
10:55 PM,21.2,6.8,54,29.90,10.0,Calm,Calm,-,N/A,,Clear,0,2011-11-21 05:55:00
11:15 PM,15.8,-0.4,49,29.90,10.0,SE,3.5,-,N/A,,Clear,140,2011-11-21 06:15:00
11:35 PM,17.6,5.0,58,29.90,10.0,SE,8.1,-,N/A,,Clear,130,2011-11-21 06:35:00
11:55 PM,15.8,1.4,53,29.90,10.0,East,4.6,-,N/A,,Clear,90,2011-11-21 06:55:00